• In Russia
  • List of Countries
  • For 7 days
  • Water Temperature
  • Satellite Maps
  • Weather Map
  • Weather Widgets
  • user-avatar
    Login

    Hourly Weather Hajdusamson

    Today, 19 January, Friday

    Time Temperature Precipitation Wind Pressure Humidity
    00:00 -1°C° 0.2 mm 8 mps 742 mmHg 70%
    01:00 -1°C° 0.2 mm 8 mps 741 mmHg 70%
    02:00 -1°C° 0.3 mm 8 mps 741 mmHg 74%
    03:00 -1°C° 0.3 mm 7 mps 741 mmHg 78%
    04:00 -1°C° 0.3 mm 7 mps 741 mmHg 83%
    05:00 -1°C° 0.1 mm 7 mps 742 mmHg 84%
    06:00 -1°C° 0.1 mm 6 mps 742 mmHg 86%
    07:00 -1°C° 0.1 mm 6 mps 742 mmHg 88%
    08:00 -1°C° 0 mm 6 mps 743 mmHg 87%
    09:00 +1°C° 0 mm 6 mps 743 mmHg 86%
    10:00 +1°C° 0 mm 5 mps 743 mmHg 85%
    11:00 +1°C° 0 mm 5 mps 744 mmHg 84%
    12:00 +2°C° 0 mm 5 mps 744 mmHg 84%
    13:00 +2°C° 0 mm 5 mps 744 mmHg 83%
    14:00 +2°C° 0.2 mm 5 mps 744 mmHg 86%
    15:00 +1°C° 0.2 mm 4 mps 744 mmHg 88%
    16:00 +2°C° 0.2 mm 3 mps 744 mmHg 91%
    17:00 +2°C° 0.2 mm 3 mps 745 mmHg 91%
    18:00 +1°C° 0.2 mm 3 mps 745 mmHg 91%
    19:00 +1°C° 0.2 mm 3 mps 745 mmHg 91%
    20:00 +1°C° 0.1 mm 3 mps 745 mmHg 91%
    21:00 +1°C° 0.1 mm 3 mps 746 mmHg 91%
    22:00 +1°C° 0.1 mm 3 mps 746 mmHg 91%
    23:00 +2°C° 0 mm 2 mps 746 mmHg 92%

    Tomorrow, 20 January, Saturday

    Time Temperature Precipitation Wind Pressure Humidity
    00:00 +1°C° 0 mm 2 mps 746 mmHg 93%
    01:00 +1°C° 0 mm 2 mps 746 mmHg 93%
    02:00 +1°C° 0 mm 2 mps 746 mmHg 93%
    03:00 -1°C° 0 mm 2 mps 746 mmHg 93%
    04:00 -1°C° 0 mm 2 mps 746 mmHg 93%
    05:00 -1°C° 0 mm 2 mps 746 mmHg 93%
    06:00 -1°C° 0 mm 2 mps 746 mmHg 93%
    07:00 -1°C° 0 mm 2 mps 746 mmHg 93%
    08:00 -1°C° 0 mm 2 mps 746 mmHg 90%
    09:00 +1°C° 0 mm 2 mps 747 mmHg 87%
    10:00 +2°C° 0 mm 2 mps 747 mmHg 83%
    11:00 +1°C° 0 mm 3 mps 746 mmHg 80%
    12:00 +2°C° 0 mm 3 mps 746 mmHg 77%
    13:00 +2°C° 0 mm 3 mps 746 mmHg 74%
    14:00 +2°C° 0 mm 3 mps 746 mmHg 76%
    15:00 +2°C° 0 mm 2 mps 745 mmHg 78%
    16:00 +2°C° 0 mm 2 mps 745 mmHg 80%
    17:00 +1°C° 0 mm 2 mps 745 mmHg 82%
    18:00 0°C° 0 mm 3 mps 745 mmHg 83%
    19:00 -1°C° 0 mm 3 mps 745 mmHg 84%
    20:00 0°C° 0 mm 3 mps 745 mmHg 84%
    21:00 -1°C° 0 mm 4 mps 745 mmHg 84%
    22:00 -1°C° 0 mm 4 mps 745 mmHg 84%
    23:00 -2°C° 0 mm 4 mps 745 mmHg 85%

    Day after tomorrow, 21 January, Sunday

    Time Temperature Precipitation Wind Pressure Humidity
    00:00 -1°C° 0 mm 3 mps 745 mmHg 87%
    01:00 -1°C° 0 mm 3 mps 745 mmHg 88%
    02:00 -1°C° 0 mm 3 mps 744 mmHg 87%
    03:00 -1°C° 0 mm 2 mps 744 mmHg 86%
    04:00 -1°C° 0 mm 2 mps 744 mmHg 84%
    05:00 -1°C° 0 mm 2 mps 744 mmHg 83%
    06:00 -1°C° 0 mm 3 mps 744 mmHg 81%
    07:00 -1°C° 0 mm 3 mps 744 mmHg 79%
    08:00 -1°C° 0 mm 4 mps 744 mmHg 77%
    09:00 -1°C° 0 mm 4 mps 744 mmHg 75%
    10:00 0°C° 0 mm 4 mps 744 mmHg 73%
    11:00 0°C° 0.1 mm 4 mps 744 mmHg 73%
    12:00 0°C° 0.1 mm 4 mps 744 mmHg 73%
    13:00 0°C° 0.1 mm 4 mps 744 mmHg 74%
    14:00 0°C° 0.1 mm 4 mps 744 mmHg 78%
    15:00 0°C° 0.1 mm 4 mps 745 mmHg 82%
    16:00 -1°C° 0.1 mm 4 mps 745 mmHg 86%
    17:00 -1°C° 0.1 mm 5 mps 746 mmHg 85%
    18:00 -1°C° 0.1 mm 5 mps 746 mmHg 85%
    19:00 -1°C° 0.1 mm 5 mps 747 mmHg 84%
    20:00 -1°C° 0 mm 5 mps 747 mmHg 83%
    21:00 -2°C° 0 mm 5 mps 747 mmHg 81%
    22:00 -2°C° 0 mm 5 mps 748 mmHg 80%
    23:00 -2°C° 0 mm 5 mps 748 mmHg 80%

    22 January, Monday

    Time Temperature Precipitation Wind Pressure Humidity
    00:00 -4°C° 0 mm 5 mps 748 mmHg 80%
    01:00 -4°C° 0 mm 5 mps 748 mmHg 80%
    02:00 -4°C° 0 mm 5 mps 749 mmHg 80%
    03:00 -5°C° 0 mm 5 mps 749 mmHg 79%
    04:00 -5°C° 0 mm 5 mps 749 mmHg 79%
    05:00 -4°C° 0 mm 4 mps 750 mmHg 80%
    06:00 -4°C° 0 mm 4 mps 750 mmHg 80%
    07:00 -4°C° 0 mm 4 mps 750 mmHg 81%
    08:00 -4°C° 0 mm 3 mps 751 mmHg 78%
    09:00 -2°C° 0 mm 3 mps 751 mmHg 74%
    10:00 -1°C° 0 mm 3 mps 751 mmHg 71%
    11:00 0°C° 0 mm 3 mps 751 mmHg 68%
    12:00 +1°C° 0 mm 2 mps 751 mmHg 66%
    13:00 +2°C° 0 mm 2 mps 751 mmHg 64%
    14:00 +1°C° 0 mm 2 mps 751 mmHg 67%
    15:00 +2°C° 0 mm 1 mps 751 mmHg 71%
    16:00 0°C° 0 mm 0 mps 751 mmHg 74%
    17:00 +1°C° 0 mm 1 mps 752 mmHg 75%
    18:00 +1°C° 0 mm 1 mps 752 mmHg 76%
    19:00 0°C° 0 mm 1 mps 752 mmHg 77%
    20:00 0°C° 0 mm 1 mps 752 mmHg 78%
    21:00 0°C° 0 mm 1 mps 752 mmHg 78%
    22:00 -2°C° 0 mm 2 mps 752 mmHg 79%
    23:00 -2°C° 0 mm 2 mps 752 mmHg 79%

    23 January, Tuesday

    Time Temperature Precipitation Wind Pressure Humidity
    00:00 -2°C° 0 mm 2 mps 752 mmHg 78%
    01:00 -2°C° 0 mm 2 mps 752 mmHg 78%
    02:00 -2°C° 0 mm 2 mps 752 mmHg 79%
    03:00 -2°C° 0 mm 2 mps 752 mmHg 80%
    04:00 -2°C° 0 mm 2 mps 751 mmHg 80%
    05:00 -2°C° 0.2 mm 2 mps 751 mmHg 83%
    06:00 -2°C° 0.2 mm 2 mps 752 mmHg 85%
    07:00 -2°C° 0.2 mm 2 mps 752 mmHg 87%
    08:00 -1°C° 0.2 mm 2 mps 752 mmHg 87%
    09:00 -1°C° 0.2 mm 2 mps 752 mmHg 87%
    10:00 -1°C° 0.2 mm 2 mps 753 mmHg 86%
    11:00 +1°C° 0 mm 2 mps 753 mmHg 83%
    12:00 +2°C° 0 mm 1 mps 753 mmHg 79%
    13:00 +3°C° 0 mm 1 mps 753 mmHg 76%
    14:00 +2°C° 0 mm 1 mps 754 mmHg 79%
    15:00 +2°C° 0 mm 1 mps 754 mmHg 81%
    16:00 +1°C° 0 mm 1 mps 755 mmHg 84%
    17:00 0°C° 0 mm 0 mps 755 mmHg 85%
    18:00 0°C° 0 mm 0 mps 755 mmHg 86%
    19:00 0°C° 0 mm 0 mps 756 mmHg 88%
    20:00 0°C° 0 mm 1 mps 756 mmHg 88%
    21:00 0°C° 0 mm 1 mps 756 mmHg 89%
    22:00 0°C° 0 mm 1 mps 756 mmHg 90%
    23:00 -2°C° 0.1 mm 2 mps 756 mmHg 91%

    24 January, Wednesday

    Time Temperature Precipitation Wind Pressure Humidity
    00:00 -2°C° 0.1 mm 2 mps 756 mmHg 92%
    01:00 -2°C° 0.1 mm 2 mps 756 mmHg 93%
    02:00 -2°C° 0.2 mm 2 mps 756 mmHg 94%
    03:00 -2°C° 0.2 mm 2 mps 756 mmHg 94%
    04:00 -2°C° 0.2 mm 2 mps 756 mmHg 95%
    05:00 -1°C° 0.1 mm 2 mps 756 mmHg 95%
    06:00 +1°C° 0.1 mm 1 mps 757 mmHg 95%
    07:00 +1°C° 0.1 mm 1 mps 757 mmHg 95%
    08:00 +1°C° 0 mm 1 mps 757 mmHg 93%
    09:00 +2°C° 0 mm 1 mps 758 mmHg 92%
    10:00 +2°C° 0 mm 1 mps 758 mmHg 90%
    11:00 +3°C° 0 mm 1 mps 759 mmHg 88%
    12:00 +3°C° 0 mm 1 mps 759 mmHg 86%
    13:00 +4°C° 0 mm 1 mps 759 mmHg 85%
    14:00 +3°C° 0 mm 1 mps 759 mmHg 87%
    15:00 +2°C° 0 mm 1 mps 759 mmHg 89%
    16:00 +1°C° 0 mm 2 mps 759 mmHg 91%
    17:00 -1°C° 0 mm 2 mps 760 mmHg 92%
    18:00 -1°C° 0 mm 2 mps 760 mmHg 92%
    19:00 -2°C° 0 mm 2 mps 760 mmHg 93%
    20:00 -2°C° 0 mm 2 mps 761 mmHg 93%
    21:00 0°C° 0 mm 1 mps 761 mmHg 93%
    22:00 0°C° 0 mm 1 mps 761 mmHg 93%
    23:00 0°C° 0 mm 1 mps 761 mmHg 93%
    Show more